GW0552 Weather Reports


Display with metric or nautical units.
time (UTC)temp
F
wind
direction
speed
MPH
gust
MPH
rain 1hr
in
rain 24hr
in
rain mn
in
humidity
%
barometer
mb
20260906163827 77 29 4.0 6.0 0.00 0.00 0.00 87 1011.8
20260906163323 76 83 1.0 2.0 0.00 0.00 0.00 89 1011.9
20260906162820 76 63 3.0 6.0 0.00 0.00 0.00 89 1011.9
20260906162319 76 58 3.0 3.0 0.00 0.00 0.00 89 1011.7
20260906161815 76 79 3.0 3.0 0.00 0.00 0.00 92 1012.1
20260906161314 74 113 3.0 3.0 0.00 0.00 0.00 93 1011.8
20260906160813 74 252 6.0 8.0 0.00 0.00 0.00 93 1012.0
20260906160307 74 150 4.0 6.0 0.00 0.00 0.00 94 1012.0
20260906155805 74 131 4.0 5.0 0.00 0.00 0.00 94 1012.0
20260906155300 74 66 1.0 2.0 0.00 0.00 0.00 94 1012.1
20260906154755 74 115 3.0 5.0 0.00 0.00 0.00 94 1012.0
20260906154250 74 77 1.0 1.0 0.00 0.00 0.00 95 1011.9
20260906153749 74 81 2.0 3.0 0.00 0.00 0.00 94 1012.0
20260906153243 74 96 2.0 2.0 0.00 0.00 0.00 95 1011.8
20260906152738 74 246 4.0 6.0 0.00 0.00 0.00 94 1011.8
20260906152233 74 79 2.0 2.0 0.00 0.00 0.00 95 1011.9
20260906151732 74 76 2.0 2.0 0.00 0.00 0.00 95 1011.7
20260906151228 74 80 0.0 1.0 0.00 0.00 0.00 95 1011.9
20260906150723 73 66 2.0 3.0 0.00 0.00 0.00 95 1011.9
20260906150219 73 76 1.0 1.0 0.00 0.00 0.00 95 1011.9
20260906145718 73 69 1.0 1.0 0.00 0.00 0.00 95 1011.8
20260906145217 73 73 2.0 2.0 0.00 0.00 0.00 95 1011.8
20260906144712 73 59 2.0 2.0 0.00 0.00 0.00 96 1011.8
20260906144207 73 67 1.0 2.0 0.00 0.00 0.00 96 1011.6
20260906143706 73 58 1.0 2.0 0.00 0.00 0.00 96 1011.7
20260906143204 73 108 3.0 3.0 0.00 0.00 0.00 96 1011.5
20260906142658 73 191 3.0 6.0 0.00 0.00 0.00 96 1011.6
20260906142153 72 262 5.0 6.0 0.00 0.00 0.00 97 1011.4
20260906141651 72 87 2.0 2.0 0.00 0.00 0.00 98 1011.7
20260906141147 72 92 2.0 3.0 0.00 0.00 0.00 97 1011.6
20260906140646 72 76 2.0 3.0 0.00 0.00 0.00 97 1011.8
20260906140141 72 97 3.0 5.0 0.00 0.00 0.00 98 1011.6
20260906135638 72 107 2.0 2.0 0.00 0.00 0.00 98 1011.5
20260906135134 71 50 2.0 2.0 0.00 0.00 0.00 98 1011.7
20260906134629 71 76 2.0 2.0 0.00 0.00 0.00 98 1011.4
20260906134124 71 245 7.0 8.0 0.00 0.00 0.00 98 1011.5
20260906133620 71 78 1.0 2.0 0.00 0.00 0.00 98 1011.7
20260906133115 71 226 4.0 5.0 0.00 0.00 0.00 98 1011.3
20260906132610 71 93 2.0 2.0 0.00 0.00 0.00 99 1011.5
20260906132106 71 94 2.0 2.0 0.00 0.00 0.00 99 1011.5
20260906131601 71 137 3.0 3.0 0.00 0.00 0.00 99 1011.3
20260906131056 71 70 0.0 1.0 0.00 0.00 0.00 99 1011.3
20260906130556 71 89 2.0 2.0 0.00 0.00 0.00 99 1011.2
20260906130051 71 122 3.0 3.0 0.00 0.00 0.00 99 1011.2
20260906125549 71 100 2.0 2.0 0.00 0.00 0.00 99 1011.1
20260906125048 71 73 1.0 1.0 0.00 0.00 0.00 99 1011.2
20260906124544 71 88 2.0 2.0 0.00 0.00 0.00 99 1011.0
20260906124039 71 69 2.0 2.0 0.00 0.00 0.00 99 1011.1
20260906123538 71 101 3.0 3.0 0.00 0.00 0.00 99 1010.9
20260906123034 71 75 1.0 1.0 0.00 0.00 0.00 99 1011.1
20260906122533 71 83 1.0 1.0 0.00 0.00 0.00 99 1011.0
20260906122029 71 72 0.0 0.0 0.00 0.00 0.00 99 1010.9
20260906121525 70 59 1.0 1.0 0.00 0.00 0.00 99 1010.9
20260906121021 70 66 0.0 0.0 0.00 0.00 0.00 99 1011.0
20260906120522 70 78 2.0 2.0 0.00 0.00 0.00 99 1010.8
20260906120019 70 76 1.0 1.0 0.00 0.00 0.00 99 1010.8
20260906115514 70 66 1.0 2.0 0.00 0.00 0.00 99 1010.6
20260906115008 70 60 2.0 3.0 0.00 0.00 0.00 99 1010.6
20260906114502 70 64 0.0 1.0 0.00 0.00 0.00 99 1010.4
20260906113958 70 110 1.0 2.0 0.00 0.00 0.00 99 1010.4
20260906113456 70 108 2.0 2.0 0.00 0.00 0.00 99 1010.6
20260906112952 70 86 0.0 0.0 0.00 0.00 0.00 99 1010.2
20260906112447 71 80 1.0 1.0 0.00 0.00 0.00 99 1010.3
20260906111943 71 88 1.0 2.0 0.00 0.00 0.00 99 1010.1
20260906111442 71 67 0.0 1.0 0.00 0.00 0.00 99 1010.0
20260906110938 71 72 0.0 0.0 0.00 0.00 0.00 99 1010.2
20260906110433 71 69 0.0 0.0 0.00 0.00 0.00 99 1009.9
20260906105932 71 82 1.0 2.0 0.00 0.00 0.00 99 1009.9
20260906105428 71 84 2.0 2.0 0.00 0.00 0.00 99 1009.9
20260906104924 71 88 0.0 0.0 0.00 0.00 0.00 99 1009.8
20260906104422 71 70 0.0 0.0 0.00 0.00 0.00 99 1009.5
20260906103922 71 65 0.0 0.0 0.00 0.00 0.00 99 1009.5
20260906103420 71 65 0.0 0.0 0.00 0.00 0.00 99 1009.4
20260906102916 71 70 0.0 0.0 0.00 0.00 0.00 99 1009.4
20260906102415 71 80 0.0 0.0 0.00 0.00 0.00 99 1009.2
20260906101910 71 59 1.0 1.0 0.00 0.00 0.00 99 1009.3
20260906101405 71 56 2.0 2.0 0.00 0.00 0.00 99 1009.1
20260906100901 71 54 3.0 3.0 0.00 0.00 0.00 99 1009.0
20260906100400 71 71 0.0 0.0 0.00 0.00 0.00 99 1009.0
20260906095855 71 142 3.0 3.0 0.00 0.00 0.00 99 1009.1
20260906095350 71 123 3.0 3.0 0.00 0.00 0.00 99 1009.1
20260906094850 71 106 2.0 2.0 0.00 0.00 0.00 99 1009.1
20260906094345 71 96 2.0 2.0 0.00 0.00 0.00 99 1009.0
20260906093841 71 71 0.0 0.0 0.00 0.00 0.00 99 1008.9
20260906093337 71 59 0.0 0.0 0.00 0.00 0.00 99 1009.0
20260906092831 71 64 0.0 0.0 0.00 0.00 0.00 99 1009.0
20260906092331 71 65 0.0 0.0 0.00 0.00 0.00 99 1009.0
20260906091827 71 67 0.0 0.0 0.00 0.00 0.00 99 1008.9
20260906091323 71 70 0.0 0.0 0.00 0.00 0.00 99 1009.1
20260906090820 71 72 0.0 0.0 0.00 0.00 0.00 99 1009.4
20260906090318 71 74 0.0 1.0 0.00 0.00 0.00 99 1009.1
20260906085813 71 83 2.0 2.0 0.00 0.00 0.00 99 1009.2
20260906085311 71 83 2.0 2.0 0.00 0.00 0.00 99 1009.1
20260906084807 71 122 3.0 3.0 0.00 0.00 0.00 99 1008.8
20260906084306 72 83 0.0 0.0 0.00 0.00 0.00 99 1008.9
20260906083801 72 73 0.0 0.0 0.00 0.00 0.00 99 1009.0
20260906083257 72 70 0.0 0.0 0.00 0.00 0.00 99 1009.1
20260906082751 72 77 0.0 0.0 0.00 0.00 0.00 99 1009.2
20260906082246 72 45 2.0 2.0 0.00 0.00 0.00 99 1009.2
20260906081742 72 80 1.0 1.0 0.00 0.00 0.00 99 1009.3
20260906081237 72 79 0.0 0.0 0.00 0.00 0.00 99 1009.2
20260906080734 72 73 0.0 0.0 0.00 0.00 0.00 99 1009.3
20260906080230 72 60 0.0 0.0 0.00 0.00 0.00 99 1009.1
20260906075730 72 67 0.0 0.0 0.00 0.00 0.00 99 1009.0
20260906075230 72 60 0.0 0.0 0.00 0.00 0.00 99 1009.3
20260906074725 72 59 0.0 0.0 0.00 0.00 0.00 99 1009.2
20260906074225 72 62 0.0 0.0 0.00 0.00 0.00 99 1009.2
20260906073724 72 61 0.0 0.0 0.00 0.00 0.00 99 1009.2
20260906073219 72 65 0.0 0.0 0.00 0.00 0.00 99 1009.0
20260906072715 71 67 0.0 0.0 0.00 0.00 0.00 99 1009.1
20260906072211 71 68 0.0 0.0 0.00 0.00 0.00 99 1008.8
20260906071707 71 68 0.0 0.0 0.00 0.00 0.00 99 1008.8
20260906071207 71 68 0.0 0.0 0.00 0.00 0.00 99 1008.6
20260906070703 71 68 0.0 0.0 0.00 0.00 0.00 99 1008.4
20260906070159 72 68 0.0 0.0 0.00 0.00 0.00 99 1008.5
20260906065658 72 70 0.0 0.0 0.00 0.00 0.00 99 1008.3
20260906065154 72 68 0.0 0.0 0.00 0.00 0.00 99 1008.5
20260906064648 72 68 0.0 0.0 0.00 0.00 0.00 99 1008.8
20260906064144 72 65 0.0 0.0 0.00 0.00 0.00 99 1008.9
20260906063639 72 68 0.0 0.0 0.00 0.00 0.00 99 1009.0
20260906063135 72 68 0.0 0.0 0.00 0.00 0.00 99 1008.8
20260906062631 72 68 0.0 0.0 0.00 0.00 0.00 99 1009.1
20260906062129 72 66 0.0 0.0 0.00 0.00 0.00 99 1009.1
20260906061626 72 66 0.0 0.0 0.00 0.00 0.00 99 1009.3
20260906061125 72 73 0.0 0.0 0.00 0.00 0.00 99 1009.3
20260906060622 72 62 0.0 0.0 0.00 0.00 0.00 99 1009.3
20260906060119 72 69 0.0 0.0 0.00 0.00 0.00 99 1009.1
20260906055614 72 67 0.0 0.0 0.00 0.00 0.00 99 1009.2
20260906055109 72 67 0.0 0.0 0.00 0.00 0.00 99 1009.1
20260906054604 72 65 0.0 0.0 0.00 0.00 0.00 99 1009.0
20260906054059 72 64 0.0 0.0 0.00 0.00 0.00 99 1008.9
20260906053556 72 63 0.0 0.0 0.00 0.00 0.00 99 1008.7
20260906053051 72 62 0.0 0.0 0.00 0.00 0.00 99 1009.0
20260906052546 72 65 0.0 0.0 0.00 0.00 0.00 99 1009.0
20260906052044 73 66 0.0 0.0 0.00 0.00 0.00 99 1009.0
20260906051538 73 69 0.0 0.0 0.00 0.00 0.00 99 1009.1
20260906051034 73 68 0.0 0.0 0.00 0.00 0.00 99 1009.0
20260906050529 73 68 0.0 0.0 0.00 0.00 0.00 99 1009.0
20260906050024 73 65 0.0 0.0 0.00 0.00 0.00 99 1009.1
20260906045522 73 65 0.0 0.0 0.00 0.00 0.00 99 1008.9
20260906042913 74 63 0.0 0.0 0.00 0.00 0.00 99 1008.8
20260906042411 74 63 0.0 0.0 0.00 0.00 0.00 99 1008.8
20260906041907 74 69 0.0 1.0 0.00 0.00 0.00 99 1008.8
20260906041403 74 70 1.0 1.0 0.00 0.00 0.00 99 1008.8
20260906040857 74 70 0.0 0.0 0.00 0.00 0.00 99 1008.4
20260906040352 74 68 0.0 0.0 0.00 0.00 0.00 99 1008.5
20260906035847 74 66 0.0 0.0 0.00 0.03 0.03 99 1008.9
20260906035343 74 66 0.0 0.0 0.00 0.03 0.03 99 1008.9
20260906034838 74 66 0.0 0.0 0.00 0.03 0.03 99 1008.9
20260906034333 74 61 0.0 0.0 0.00 0.03 0.03 99 1009.0
20260906033829 74 69 0.0 0.0 0.00 0.03 0.03 99 1008.8
20260906033328 74 69 0.0 0.0 0.00 0.03 0.03 99 1008.7
20260906032824 74 66 0.0 0.0 0.00 0.03 0.03 99 1008.7
20260906032320 74 68 0.0 0.0 0.00 0.03 0.03 99 1008.7
20260906031815 74 68 0.0 0.0 0.00 0.03 0.03 99 1008.8
20260906031311 74 68 0.0 0.0 0.00 0.03 0.03 99 1008.8
20260906030810 74 69 0.0 0.0 0.00 0.03 0.03 99 1009.1
20260906030305 74 69 0.0 0.0 0.00 0.03 0.03 99 1008.9
20260906025805 74 69 0.0 0.0 0.00 0.03 0.03 99 1009.1
20260906025259 74 69 0.0 0.0 0.00 0.03 0.03 99 1009.2
20260906024758 74 70 0.0 0.0 0.00 0.03 0.03 99 1009.0
20260906024257 74 69 0.0 0.0 0.00 0.03 0.03 99 1009.4
20260906023753 74 68 0.0 0.0 0.00 0.03 0.03 99 1009.2
20260906023248 74 67 0.0 0.0 0.00 0.03 0.03 99 1009.1
20260906022744 74 67 0.0 0.0 0.00 0.03 0.03 99 1009.2
20260906022239 74 67 0.0 0.0 0.00 0.03 0.03 99 1009.3
20260906021736 74 68 0.0 0.0 0.00 0.03 0.03 99 1009.2
20260906021234 74 70 0.0 0.0 0.00 0.03 0.03 99 1009.3
20260906020729 74 70 0.0 0.0 0.00 0.03 0.03 99 1009.2
20260906020223 75 70 1.0 1.0 0.00 0.03 0.03 99 1009.0
20260906015245 75 70 0.0 0.0 0.00 0.03 0.03 99 1008.9
20260906014740 75 70 0.0 0.0 0.00 0.03 0.03 99 1008.9
20260906014236 75 70 0.0 0.0 0.00 0.03 0.03 99 1008.9
20260906013732 75 70 0.0 0.0 0.00 0.03 0.03 98 1008.9
20260906013231 74 69 0.0 0.0 0.00 0.03 0.03 98 1008.9
20260906012727 74 69 0.0 0.0 0.00 0.03 0.03 98 1008.7
20260906012221 75 69 0.0 0.0 0.00 0.03 0.03 98 1008.5
20260906010939 75 70 0.0 0.0 0.00 0.03 0.03 98 1008.4
20260906010434 75 70 0.0 0.0 0.00 0.03 0.03 98 1008.4
20260906005930 76 74 1.0 1.0 0.00 0.03 0.03 98 1008.3
20260906005430 75 73 0.0 0.0 0.00 0.03 0.03 98 1008.3
20260906004928 76 73 0.0 0.0 0.00 0.03 0.03 98 1008.5
20260906004422 76 73 0.0 0.0 0.00 0.03 0.03 98 1008.2
20260906003918 76 73 0.0 0.0 0.00 0.03 0.03 98 1008.4
20260906003413 76 72 0.0 0.0 0.00 0.03 0.03 97 1008.1
20260906002909 76 73 0.0 0.0 0.00 0.03 0.03 97 1008.1
20260906002409 77 73 0.0 0.0 0.00 0.03 0.03 96 1008.1
20260906001904 77 72 0.0 0.0 0.00 0.03 0.03 96 1008.2
20260906001400 77 72 0.0 0.0 0.00 0.03 0.03 96 1008.3
20260906000859 77 73 0.0 0.0 0.00 0.03 0.03 96 1008.3
20260906000400 77 73 0.0 0.0 0.00 0.03 0.03 96 1008.4
20260905235855 78 73 0.0 0.0 0.00 0.03 0.03 95 1008.2
20260905235349 78 72 0.0 0.0 0.00 0.03 0.03 95 1008.3
20260905234844 78 72 0.0 0.0 0.00 0.03 0.03 94 1008.3
20260905234340 78 72 0.0 0.0 0.00 0.03 0.03 94 1008.4
20260905233835 79 71 0.0 0.0 0.00 0.03 0.03 93 1008.7
20260905233329 79 71 0.0 0.0 0.00 0.03 0.03 93 1008.8
20260905232829 79 71 0.0 0.0 0.00 0.03 0.03 92 1008.7
20260905232325 79 71 0.0 0.0 0.00 0.03 0.03 91 1008.6
20260905231821 80 71 0.0 0.0 0.00 0.03 0.03 91 1008.5
20260905231315 80 71 0.0 0.0 0.00 0.03 0.03 90 1008.4
20260905230812 80 71 0.0 0.0 0.00 0.03 0.03 89 1008.4
20260905230310 80 71 0.0 0.0 0.00 0.03 0.03 89 1008.3
20260905225809 81 71 0.0 0.0 0.00 0.03 0.03 89 1008.5
20260905225306 81 71 0.0 0.0 0.00 0.03 0.03 89 1008.5
20260905224804 81 71 0.0 0.0 0.00 0.03 0.03 89 1008.6
20260905224300 81 71 0.0 0.0 0.00 0.03 0.03 88 1008.3
20260905223755 81 71 0.0 0.0 0.00 0.03 0.03 88 1008.3
20260905223252 81 70 0.0 0.0 0.00 0.03 0.03 87 1008.3
20260905222747 81 70 0.0 0.0 0.00 0.03 0.03 87 1008.3
20260905222246 82 69 0.0 0.0 0.00 0.03 0.03 85 1008.4
20260905221742 82 69 0.0 0.0 0.00 0.03 0.03 85 1008.5
20260905221239 82 69 0.0 0.0 0.00 0.03 0.03 85 1008.3
20260905220734 82 69 0.0 0.0 0.00 0.03 0.03 86 1008.3
20260905220231 82 70 0.0 0.0 0.00 0.03 0.03 83 1008.3
20260905215730 83 68 1.0 1.0 0.00 0.03 0.03 82 1008.4
20260905215226 83 68 0.0 0.0 0.00 0.03 0.03 81 1008.3
20260905214721 83 40 2.0 2.0 0.00 0.03 0.03 78 1008.5
20260905214217 84 55 1.0 2.0 0.00 0.03 0.03 79 1008.4
20260905213712 84 14 1.0 2.0 0.00 0.03 0.03 75 1008.4
20260905213208 85 60 1.0 1.0 0.00 0.03 0.03 74 1008.2
20260905212703 85 47 3.0 3.0 0.00 0.03 0.03 75 1008.0
20260905212202 85 36 3.0 3.0 0.00 0.03 0.03 74 1008.3
20260905211656 85 78 2.0 2.0 0.00 0.03 0.03 75 1008.3
20260905211152 85 59 1.0 2.0 0.00 0.03 0.03 74 1008.5
20260905210648 85 67 0.0 0.0 0.00 0.03 0.03 75 1008.3
20260905210143 86 102 2.0 2.0 0.00 0.03 0.03 74 1008.3
20260905205642 85 61 2.0 2.0 0.00 0.03 0.03 74 1008.3
20260905205142 84 53 2.0 2.0 0.00 0.03 0.03 77 1008.1
20260905204641 84 100 2.0 2.0 0.00 0.03 0.03 75 1008.2
20260905204136 84 44 3.0 3.0 0.00 0.03 0.03 80 1008.2
20260905203631 84 81 1.0 2.0 0.00 0.03 0.03 79 1008.2
20260905203126 84 82 1.0 2.0 0.00 0.03 0.03 84 1008.3
20260905202622 83 72 0.0 1.0 0.00 0.03 0.03 84 1008.5
20260905202117 82 75 1.0 2.0 0.00 0.03 0.03 88 1008.1
20260905201613 82 79 1.0 2.0 0.00 0.03 0.03 87 1008.5
20260905201112 81 69 0.0 0.0 0.00 0.03 0.03 84 1008.8
20260905200608 82 64 0.0 0.0 0.12 0.03 0.03 82 1008.7
20260905195556 84 40 1.0 2.0 0.00 0.01 0.01 72 1008.9
20260905195051 85 133 5.0 6.0 0.00 0.01 0.01 70 1008.8
20260905194551 85 67 1.0 2.0 0.00 0.01 0.01 70 1008.9
20260905194050 86 97 2.0 3.0 0.00 0.01 0.01 67 1008.9
20260905193545 86 276 4.0 5.0 0.00 0.01 0.01 66 1008.8
20260905193041 86 85 1.0 2.0 0.00 0.01 0.01 67 1008.9
20260905192536 85 31 1.0 1.0 0.00 0.01 0.01 67 1008.9
20260905192032 86 260 5.0 5.0 0.00 0.01 0.01 67 1009.0
20260905191530 87 314 4.0 5.0 0.00 0.01 0.01 64 1009.2
20260905191030 87 32 2.0 2.0 0.00 0.01 0.01 68 1009.2
20260905190528 87 114 0.0 0.0 0.00 0.01 0.01 68 1009.1
20260905190028 87 72 1.0 1.0 0.00 0.01 0.01 70 1009.1
20260905185527 86 55 1.0 1.0 0.00 0.01 0.01 68 1009.3
20260905185026 86 249 4.0 5.0 0.00 0.01 0.01 69 1009.5
20260905184521 85 249 4.0 5.0 0.00 0.01 0.01 70 1009.5
20260905184019 85 337 1.0 2.0 0.00 0.01 0.01 70 1009.7
20260905183514 85 290 3.0 3.0 0.00 0.01 0.01 72 1009.7
20260905183009 84 274 3.0 3.0 0.00 0.01 0.01 74 1009.9
20260905182503 84 283 5.0 6.0 0.00 0.01 0.01 73 1009.8
20260905181957 84 68 1.0 1.0 0.00 0.01 0.01 73 1010.1
20260905181452 84 184 3.0 5.0 0.00 0.01 0.01 72 1009.8
20260905180951 85 68 1.0 1.0 0.00 0.01 0.01 73 1009.8
20260905180446 84 19 3.0 3.0 0.00 0.01 0.01 74 1009.9
20260905175942 84 244 4.0 5.0 0.00 0.01 0.01 77 1009.9
20260905175441 84 114 0.0 1.0 0.00 0.01 0.01 77 1009.9
20260905174936 83 183 4.0 6.0 0.00 0.01 0.01 76 1010.0
20260905174432 83 163 3.0 5.0 0.00 0.01 0.01 77 1009.9
20260905173927 82 20 4.0 5.0 0.00 0.01 0.01 82 1009.9
20260905173424 82 56 3.0 3.0 0.00 0.01 0.01 80 1010.2
20260905172919 82 92 1.0 2.0 0.00 0.01 0.01 80 1010.4
20260905172417 82 239 5.0 6.0 0.00 0.01 0.01 82 1010.3
20260905171913 81 221 2.0 2.0 0.00 0.01 0.01 82 1010.5
20260905171409 81 221 4.0 6.0 0.00 0.01 0.01 83 1010.4
20260905170906 82 265 6.0 7.0 0.00 0.01 0.01 83 1010.5
20260905170401 82 64 1.0 1.0 0.00 0.01 0.01 82 1010.5
20260905165901 82 176 3.0 3.0 0.00 0.01 0.01 84 1010.4
20260905165355 82 37 3.0 6.0 0.00 0.01 0.01 82 1010.3
20260905164850 82 249 6.0 7.0 0.00 0.01 0.01 81 1010.7
20260905164345 82 249 6.0 7.0 0.00 0.01 0.01 81 1010.7